Del Rio, TX

4:48 AM CST on December 10, 2016 (GMT -0600)
Del Rio International

Weather History for KDRT - March, 2014

Change the Weather History Date:

Thursday, March 6, 2014

  Actual Average Record
Temperature  
Mean Temperature 59 °F 62 °F  
Max Temperature 74 °F 74 °F 99 °F (1991)
Min Temperature 44 °F 50 °F 28 °F (1954)
Degree Days  
Heating Degree Days 6 5  
Month to date heating degree days 56 34  
Since 1 July heating degree days 1463 1270  
Cooling Degree Days 0 2  
Month to date cooling degree days 5 10  
Year to date cooling degree days 50 29  
Growing Degree Days 8 (Base 50)    
Moisture  
Dew Point 31 °F    
Average Humidity 40    
Maximum Humidity 65    
Minimum Humidity 14    
Precipitation  
Precipitation 0.00 in 0.04 in 0.49 in (1937)
Month to date precipitation T 0.24  
Year to date precipitation 0.22 1.84  
Sea Level Pressure  
Sea Level Pressure 30.12 in    
Wind  
Wind Speed 8 mph (NNE)    
Max Wind Speed 16 mph    
Max Gust Speed 21 mph    
Visibility 10 miles    
Events      
T = Trace of Precipitation, MM = Missing Value Source: NWS Daily Summary

Daily Weather History Graph

Daily Weather History Graph

Search for Another Location

Airport or City:

Trip Planner

Search our weather history database for the weather conditions in past years. The results will help you decide how hot, cold, wet, or windy it might be!

Date:

Astronomy

Mar. 06, 2014 Rise Set
Actual Time 7:03 AM CST 6:46 PM CST
Civil Twilight 6:39 AM CST 7:10 PM CST
Nautical Twilight 6:12 AM CST 7:37 PM CST
Astronomical Twilight 5:44 AM CST 8:05 PM CST
Moon 10:38 AM CST (3/6) No Moon Set
Length of Visible Light 12h 30m
Length of Day
11h 42m
Waxing Crescent, 32% of the Moon is Illuminated
Mar 6
Waxing Crescent
Mar 8
First Quarter
Mar 16
Full
Mar 23
Last Quarter
Mar 30
New

Hourly Weather History & Observations

Time (CST) Temp. Windchill Dew Point Humidity Pressure Visibility Wind Dir Wind Speed Gust Speed Precip Events Conditions
12:53 AM 57.0 °F - 35.1 °F 44% 30.17 in 10.0 mi NNW 6.9 mph - N/A   Clear
1:53 AM 52.0 °F - 36.0 °F 54% 30.19 in 10.0 mi West 5.8 mph - N/A   Clear
2:53 AM 52.0 °F - 34.0 °F 50% 30.18 in 10.0 mi NNW 9.2 mph - N/A   Clear
3:53 AM 50.0 °F - 35.1 °F 57% 30.18 in 10.0 mi North 6.9 mph - N/A   Clear
4:53 AM 48.9 °F - 33.1 °F 54% 30.21 in 10.0 mi North 6.9 mph - N/A   Clear
5:53 AM 46.9 °F - 34.0 °F 61% 30.21 in 10.0 mi NW 6.9 mph - N/A   Clear
6:53 AM 44.1 °F 39.0 °F 33.1 °F 65% 30.24 in 10.0 mi NNW 9.2 mph - N/A   Clear
7:53 AM 45.0 °F 41.2 °F 34.0 °F 65% 30.25 in 10.0 mi NNW 6.9 mph - N/A   Clear
8:53 AM 51.1 °F - 32.0 °F 48% 30.25 in 10.0 mi NNW 13.8 mph - N/A   Clear
9:53 AM 54.0 °F - 32.0 °F 43% 30.25 in 10.0 mi NNW 11.5 mph - N/A   Clear
10:53 AM 57.0 °F - 32.0 °F 39% 30.23 in 10.0 mi North 9.2 mph - N/A   Clear
11:53 AM 61.0 °F - 33.1 °F 35% 30.21 in 10.0 mi Variable 6.9 mph - N/A   Clear
12:53 PM 64.0 °F - 33.1 °F 31% 30.17 in 10.0 mi NNW 10.4 mph - N/A   Clear
1:53 PM 69.1 °F - 32.0 °F 25% 30.12 in 10.0 mi North 5.8 mph - N/A   Clear
2:53 PM 70.0 °F - 27.0 °F 20% 30.08 in 10.0 mi NE 5.8 mph - N/A   Clear
3:53 PM 72.0 °F - 25.0 °F 17% 30.03 in 10.0 mi SSE 6.9 mph - N/A   Clear
4:53 PM 73.0 °F - 21.0 °F 14% 30.00 in 10.0 mi Calm Calm - N/A   Clear
5:53 PM 72.0 °F - 24.1 °F 17% 29.98 in 10.0 mi SE 9.2 mph - N/A   Clear
6:53 PM 66.9 °F - 26.1 °F 21% 29.99 in 10.0 mi SSE 6.9 mph - N/A   Clear
7:53 PM 64.0 °F - 28.0 °F 26% 30.00 in 10.0 mi SSE 8.1 mph - N/A   Clear
8:53 PM 64.0 °F - 28.0 °F 26% 30.00 in 10.0 mi SE 6.9 mph - N/A   Clear
9:53 PM 61.0 °F - 28.9 °F 30% 30.00 in 10.0 mi ESE 5.8 mph - N/A   Clear
10:53 PM 61.0 °F - 30.9 °F 32% 29.99 in 10.0 mi ESE 11.5 mph - N/A   Clear
11:53 PM 59.0 °F - 32.0 °F 36% 29.98 in 10.0 mi ESE 10.4 mph - N/A   Clear